Samsun / Carsamba, Turkey

4:01 PM +03 on June 28, 2017 (GMT +0300)
Carsamba

Weather History for LTFH - February, 2014

Change the Weather History Date:

Thursday, February 20, 2014

  Actual Average Record
Temperature  
Mean Temperature 58 °F -  
Max Temperature 80 °F - - ()
Min Temperature 35 °F - - ()
Degree Days  
Heating Degree Days 8    
Growing Degree Days 8 (Base 50)    
Moisture  
Dew Point 38 °F    
Average Humidity 70    
Maximum Humidity 100    
Minimum Humidity 13    
Precipitation  
Precipitation 0.00 in - - ()
Sea Level Pressure  
Sea Level Pressure 30.04 in    
Wind  
Wind Speed 4 mph ()    
Max Wind Speed 22 mph    
Max Gust Speed -    
Visibility 1.8 miles    
Events Fog    
T = Trace of Precipitation, MM = Missing Value Source: Averaged Metar Reports

Daily Weather History Graph

Daily Weather History Graph

Search for Another Location

Airport or City:

Trip Planner

Search our weather history database for the weather conditions in past years. The results will help you decide how hot, cold, wet, or windy it might be!

Date:

Astronomy

Feb. 20, 2014 Rise Set
Actual Time 6:22 AM EET 5:13 PM EET
Civil Twilight 5:53 AM EET 5:41 PM EET
Nautical Twilight 5:21 AM EET 6:13 PM EET
Astronomical Twilight 4:49 AM EET 6:45 PM EET
Moon 10:50 PM EET (2/20) 8:48 AM EET (2/20)
Length of Visible Light 11h 47m
Length of Day
10h 51m
Waning Gibbous, 74% of the Moon is Illuminated
Feb 20
Waning Gibbous
Feb 22
Last Quarter
Mar 1
New
Mar 8
First Quarter
Mar 16
Full

Hourly Weather History & Observations

Time (EET) Temp. Windchill Dew Point Humidity Pressure Visibility Wind Dir Wind Speed Gust Speed Precip Events Conditions
12:50 AM 37.4 °F - 37.4 °F 100% 30.09 in 2.5 mi Variable 2.3 mph - N/A   Mist
1:50 AM 37.4 °F - 37.4 °F 100% 30.06 in 2.5 mi Variable 2.3 mph - N/A   Mist
2:50 AM 37.4 °F 34.9 °F 35.6 °F 93% 30.06 in 2.5 mi WSW 3.5 mph - N/A   Mist
3:50 AM 35.6 °F 30.7 °F 35.6 °F 100% 30.06 in 0.5 mi South 5.8 mph - N/A Fog Fog
4:50 AM 41.0 °F - 39.2 °F 93% 30.06 in 0.3 mi Variable 2.3 mph - N/A Fog Fog
5:50 AM 37.4 °F - 35.6 °F 93% 30.04 in 0.3 mi Variable 2.3 mph - N/A Fog Fog
6:50 AM 35.6 °F - 33.8 °F 93% 30.04 in 3.7 mi Variable 2.3 mph - N/A   Unknown
7:50 AM 42.8 °F - 42.8 °F 100% 30.06 in - Variable 2.3 mph - N/A   Clear
8:50 AM 55.4 °F - 55.4 °F 100% 30.04 in - Calm Calm - N/A   Clear
9:50 AM 68.0 °F - 44.6 °F 43% 30.04 in - Variable 1.2 mph - N/A   Clear
10:50 AM 75.2 °F - 33.8 °F 22% 30.04 in - SW 4.6 mph - N/A   Clear
11:50 AM 77.0 °F - 32.0 °F 19% 30.01 in - West 5.8 mph - N/A   Clear
12:50 PM 78.8 °F - 28.4 °F 16% 29.98 in - Variable 4.6 mph - N/A   Clear
1:50 PM 78.8 °F - 28.4 °F 16% 29.98 in - NNW 6.9 mph - N/A   Clear
2:50 PM 80.6 °F - 24.8 °F 13% 29.95 in - NNW 4.6 mph - N/A   Clear
3:50 PM 57.2 °F - 44.6 °F 63% 30.01 in - WNW 21.9 mph - N/A   Clear
4:50 PM 53.6 °F - 44.6 °F 72% 30.04 in - NNW 9.2 mph - N/A   Clear
5:50 PM 50.0 °F - 42.8 °F 76% 30.06 in - SSE 4.6 mph - N/A   Clear
6:50 PM 50.0 °F - 42.8 °F 76% 30.06 in - SE 6.9 mph - N/A   Clear
7:50 PM 51.8 °F - 42.8 °F 71% 30.06 in - ESE 8.1 mph - N/A   Clear
8:50 PM 50.0 °F - 41.0 °F 71% 30.04 in - East 5.8 mph - N/A   Clear
9:50 PM 46.4 °F 45.2 °F 39.2 °F 76% 30.04 in - ESE 3.5 mph - N/A   Clear
10:50 PM 42.8 °F 41.1 °F 37.4 °F 81% 30.04 in - ESE 3.5 mph - N/A   Clear
11:50 PM 42.8 °F 40.1 °F 39.2 °F 87% 30.04 in - SE 4.6 mph - N/A   Clear